Location: Arcueil
(48.7999°N, 2.3326°E)
Time: 06:08:43
(UTC+00:00)

Okean O Rocket - Visible Passes

Search period start: 24 September 2023 00:00
Search period end: 04 October 2023 00:00
Orbit: 621 x 641 km, 98.1° (Epoch: 23 September)

Date Brightness Start Highest point End Pass type
(mag) Time Alt. Az. Time Alt. Az. Time Alt. Az.
24 Sep 2.3 19:45:12 13° S 19:49:05 53° W 19:53:26 10° NNW visible
25 Sep 2.5 18:29:41 10° SE 18:33:32 30° ENE 18:37:25 10° N visible
25 Sep 3.2 20:06:13 12° SSW 20:09:46 33° W 20:13:50 10° NNW visible
26 Sep 1.9 18:49:50 10° SE 18:54:00 45° ENE 18:58:16 10° N visible
26 Sep 3.9 20:27:14 11° SW 20:30:32 22° W 20:33:59 10° NW visible
27 Sep 1.5 19:10:52 15° SSE 19:14:32 72° ENE 19:18:59 10° N visible
27 Sep 4.4 20:48:57 10° WSW 20:51:21 14° W 20:53:45 10° NW visible
28 Sep 1.8 19:31:53 18° S 19:35:07 74° WSW 19:39:35 10° NNW visible
29 Sep 2.9 18:16:15 10° ESE 18:19:44 23° ENE 18:23:14 10° N visible
29 Sep 2.6 19:52:54 19° SSW 19:55:46 46° W 20:00:04 10° NNW visible
30 Sep 2.3 18:36:31 12° SE 18:40:09 34° ENE 18:44:10 10° N visible
30 Sep 3.4 20:13:55 17° SW 20:16:28 29° W 20:20:23 10° NW visible
01 Oct 1.8 18:57:32 18° SE 19:00:38 52° ENE 19:04:58 10° N visible
01 Oct 4.0 20:34:56 14° SW 20:37:14 19° W 20:40:28 10° NW visible
02 Oct 1.5 19:18:33 24° SSE 19:21:10 82° ENE 19:25:38 10° NNW visible
02 Oct 4.5 20:56:11 10° WSW 20:58:03 12° W 20:59:58 10° WNW visible
03 Oct 3.2 18:02:57 10° ESE 18:05:55 18° ENE 18:08:54 10° NNE visible
03 Oct 2.0 19:39:34 28° S 19:41:46 64° WSW 19:46:12 10° NNW visible
